Torna al catalogo

COSMOS 446

AttivoMilitareLEO
NORAD 5549·PAYLOAD·🇷🇺 Russia

Lanciato Oct 13, 1971 da Plesetsk Cosmodrome

Loading…

Prossimi Passaggi (prossime 24 ore)

TLE

AggiornatoSource: Space-Track

Epoca: Sep 14, 2026, 04:45 UTC

1 05549U 71086C   26257.19857102 -.00000003  00000-0  84807-4 0  9995
2 05549  74.0326 358.3481 0084035 323.0298  36.4982 12.54462280514934

Traccia COSMOS 446 in tempo reale con AllMySat

Download on the App Store